Regional Weather Roundup
Issued by NWS Jackson, KY

Home | Current Version | Previous Version | Text Only | Print | Product List | Glossary Off
Versions: 1 2 3 4 5 6 7 8 9 10 11 12 13 14 15 16 17 18 19 20 21 22 23 24 25 26 27 28 29 30 31 32 33 34 35 36 37 38 39 40 41 42 43 44 45 46 47 48 49 50

000
ASUS43 KJKL 300510
RWRJKL

EAST KENTUCKY HOURLY WEATHER ROUNDUP
NATIONAL WEATHER SERVICE JACKSON KY
100 AM EDT SAT JUL 30 2016

NOTE: "FAIR" INDICATES FEW OR NO CLOUDS BELOW 12,000 FEET WITH
NO SIGNIFICANT WEATHER AND/OR OBSTRUCTIONS TO VISIBILITY.

* THESE REPORTS ARE NOT UNDER NWS QUALITY CONTROL AND MAY NOT
  REPORT WEATHER SUCH AS PRECIPITATION AND FOG.

KYZ079-080-083-085-087-088-110-112-115-119-120-300600
...EASTERN KENTUCKY...

CITY           SKY/WX    TMP DP  RH WIND       PRES   REMARKS
JACKSON        CLEAR     70  68  93 CALM      30.00S
LONDON         CLOUDY    71  67  87 S5        29.99S
SOMERSET*      CLOUDY    70  70 100 CALM      29.98F
MONTICELLO*    PTCLDY   N/A N/A N/A NE12      29.99F HAZE
WILLIAMSBURG*  CLOUDY    70  70 100 SE5       29.99F
MIDDLESBORO*   PTCLDY    68  68  99 CALM      30.02S
HARLAN APT*      N/A     68  66  94 CALM      30.03S
PIKE CO APT*   MOCLDY    68  68 100 SE3       30.01S FOG
MOREHEAD APT*  CLOUDY    73  70  88 VRB5      29.98S
ASHLAND*       CLOUDY    75  72  88 CALM      29.94S
$$

KYZ035-036-041-042-044-050-067-078-099-300600
...CENTRAL KENTUCKY...

CITY           SKY/WX    TMP DP  RH WIND       PRES   REMARKS
MT STERLING*   PTCLDY    72  70  94 SW5       29.98S
FLEMING/MASON* RAIN      71  70  98 SE5       29.97S
DANVILLE*      CLOUDY    72  70  94 SW5       29.97F
LEXINGTON      CLOUDY    73  69  87 SW3       29.96R
FRANKFORT      CLOUDY    73  69  87 SW7       29.93F
LOUISVILLE     PTCLDY    76  71  85 SW5       29.92F
LEBANON*         N/A     72  72 100 SE3       29.95F
GLASGOW*       CLOUDY    72  72 100 CALM      29.94F
BOWLING GREEN  CLOUDY    75  71  87 S6        29.93F
$$

KYZ091>093-OHZ055-061-077-WVZ005-015-034-035-042-300600
...SOUTHERN OHIO/WEST VIRGINIA...

CITY           SKY/WX    TMP DP  RH WIND       PRES   REMARKS
COVINGTON      CLOUDY    70  70 100 S7        29.94S
COLUMBUS       LGT RAIN  72  67  84 S5        29.93F
DAYTON         MOCLDY    70  69  97 SE3       29.95F
WILMINGTON     CLOUDY    69  68  96 CALM      29.94F
HUNTINGTON       N/A     73  71  93 SW3       29.96S
CHARLESTON       N/A     73  71  93 CALM      29.98R
PINEVILLE*     MOCLDY    69  66  90 MISG      30.09R FOG
BECKLEY        MOCLDY    67  65  93 CALM      30.07R
BLUEFIELD        N/A     67  64  90 SW3       30.10S
LOGAN CO APT*  FOG       70  70 100 CALM      30.01S VSB<1/4
$$

VAZ002-007-008-TNZ017-027-036-066-071-300600
...SOUTHWEST VIRGINIA/EAST TENNESSEE...

CITY           SKY/WX    TMP DP  RH WIND       PRES   REMARKS
WISE*          FOG       64  63  94 SW5       30.10S VSB 1/4
JONESVILLE*    CLOUDY    68  68 100 CALM      30.06S
ABINGDON*      CLOUDY    69  69 100 CALM      30.07F FOG
BRISTOL        PTCLDY    69  67  93 CALM      30.04S
MORRISTOWN*    MOCLDY    70  70 100 CALM      30.01F
SEVIERVILLE*   CLEAR     70  70 100 CALM      30.00F
KNOXVILLE      PTCLDY    74  72  93 CALM      29.99F
OAK RIDGE      PTCLDY    75  71  87 CALM      30.01F
CROSSVILLE     MOCLDY    70  68  93 S3        30.04F
NASHVILLE      CLOUDY    75  70  84 S6        29.94F
$$

...KEY TO REMARKS...
VSB - VISIBILITY IN MILES
WCI - WIND CHILL INDEX
HX  - HEAT INDEX

$$



USA.gov is the U.S. government's official web portal to all federal, state and local government web resources and services.